TimeEST,TemperatureF,Dew PointF,Humidity,Sea Level PressureIn,VisibilityMPH,Wind Direction,Wind SpeedMPH,Gust SpeedMPH,PrecipitationIn,Events,Conditions,WindDirDegrees,DateUTC
12:15 AM,48.2,44.6,87,29.95,10.0,SSW,16.1,25.3,N/A,,Overcast,200,2014-01-14 05:15:00
12:35 AM,48.2,44.6,87,29.94,10.0,SSW,16.1,-,N/A,,Mostly Cloudy,200,2014-01-14 05:35:00
12:55 AM,48.2,46.4,93,29.94,10.0,SSW,18.4,21.9,N/A,,Mostly Cloudy,200,2014-01-14 05:55:00
1:15 AM,50.0,46.4,87,29.93,10.0,SSW,17.3,-,N/A,,Overcast,200,2014-01-14 06:15:00
1:35 AM,50.0,46.4,87,29.94,10.0,SSW,18.4,26.5,N/A,,Overcast,200,2014-01-14 06:35:00
1:55 AM,51.8,46.4,82,29.94,10.0,SSW,18.4,24.2,N/A,,Overcast,210,2014-01-14 06:55:00
2:15 AM,51.8,46.4,82,29.93,10.0,SSW,20.7,27.6,N/A,,Overcast,210,2014-01-14 07:15:00
2:35 AM,50.0,46.4,87,29.92,10.0,SSW,17.3,24.2,N/A,,Overcast,210,2014-01-14 07:35:00
2:55 AM,50.0,46.4,87,29.91,10.0,SSW,15.0,20.7,N/A,,Overcast,210,2014-01-14 07:55:00
3:15 AM,50.0,46.4,87,29.91,10.0,SSW,18.4,23.0,N/A,,Overcast,210,2014-01-14 08:15:00
3:35 AM,50.0,46.4,87,29.90,10.0,SSW,12.7,21.9,N/A,,Overcast,200,2014-01-14 08:35:00
3:55 AM,50.0,46.4,87,29.89,10.0,SSW,13.8,20.7,N/A,,Overcast,210,2014-01-14 08:55:00
4:15 AM,50.0,46.4,87,29.89,10.0,SSW,13.8,-,N/A,,Overcast,210,2014-01-14 09:15:00
4:35 AM,50.0,46.4,87,29.89,10.0,SSW,13.8,21.9,N/A,,Overcast,210,2014-01-14 09:35:00
4:55 AM,50.0,46.4,87,29.89,10.0,SSW,16.1,-,N/A,,Mostly Cloudy,210,2014-01-14 09:55:00
5:15 AM,50.0,46.4,87,29.88,10.0,SSW,15.0,20.7,N/A,,Mostly Cloudy,200,2014-01-14 10:15:00
5:35 AM,50.0,46.4,87,29.88,10.0,SSW,15.0,21.9,N/A,,Overcast,210,2014-01-14 10:35:00
5:55 AM,50.0,46.4,87,29.89,10.0,SSW,17.3,-,N/A,,Overcast,210,2014-01-14 10:55:00
6:15 AM,50.0,44.6,82,29.90,10.0,SW,17.3,26.5,N/A,,Overcast,220,2014-01-14 11:15:00
6:35 AM,50.0,44.6,82,29.89,10.0,SSW,18.4,25.3,N/A,,Overcast,210,2014-01-14 11:35:00
6:55 AM,50.0,42.8,76,29.89,10.0,SSW,19.6,26.5,N/A,,Overcast,210,2014-01-14 11:55:00
7:15 AM,50.0,42.8,76,29.89,10.0,SW,17.3,27.6,N/A,,Overcast,220,2014-01-14 12:15:00
7:35 AM,50.0,41.0,71,29.89,10.0,SW,13.8,20.7,N/A,,Overcast,220,2014-01-14 12:35:00
7:55 AM,50.0,42.8,76,29.89,10.0,SSW,17.3,-,N/A,,Mostly Cloudy,210,2014-01-14 12:55:00
8:15 AM,50.0,41.0,71,29.90,10.0,SSW,12.7,-,N/A,,Mostly Cloudy,200,2014-01-14 13:15:00
8:35 AM,50.0,44.6,82,29.90,10.0,SSW,12.7,-,N/A,,Mostly Cloudy,200,2014-01-14 13:35:00
8:55 AM,50.0,46.4,87,29.90,9.0,SSW,12.7,-,N/A,,Mostly Cloudy,210,2014-01-14 13:55:00
9:15 AM,50.0,46.4,87,29.90,10.0,SSW,13.8,-,N/A,,Partly Cloudy,200,2014-01-14 14:15:00
9:35 AM,51.8,46.4,82,29.89,10.0,SSW,11.5,-,N/A,,Mostly Cloudy,200,2014-01-14 14:35:00
9:55 AM,53.6,48.2,82,29.89,10.0,SSW,12.7,-,N/A,,Overcast,200,2014-01-14 14:55:00
10:15 AM,51.8,48.2,88,29.88,10.0,SSW,12.7,-,N/A,,Overcast,210,2014-01-14 15:15:00
10:35 AM,51.8,48.2,88,29.87,7.0,SSW,11.5,-,N/A,,Overcast,200,2014-01-14 15:35:00
10:55 AM,51.8,48.2,88,29.85,10.0,SSW,9.2,-,N/A,,Overcast,210,2014-01-14 15:55:00
11:15 AM,51.8,50.0,94,29.83,4.0,SSW,11.5,-,N/A,Rain,Light Rain,210,2014-01-14 16:15:00
11:35 AM,51.8,50.0,94,29.81,5.0,SSW,9.2,-,N/A,,Overcast,210,2014-01-14 16:35:00
11:55 AM,51.8,50.0,94,29.81,5.0,SSW,9.2,-,0.01,Rain,Light Rain,200,2014-01-14 16:55:00
12:15 PM,50.0,50.0,100,29.81,2.5,SSW,11.5,-,N/A,,Overcast,210,2014-01-14 17:15:00
12:35 PM,50.0,50.0,100,29.78,5.0,South,11.5,-,0.03,Rain,Light Rain,180,2014-01-14 17:35:00
12:55 PM,50.0,50.0,100,29.77,4.0,South,12.7,-,0.03,Rain,Light Rain,180,2014-01-14 17:55:00
1:15 PM,50.0,50.0,100,29.76,3.0,South,17.3,23.0,N/A,,Overcast,190,2014-01-14 18:15:00
1:35 PM,50.0,50.0,100,29.75,4.0,South,18.4,24.2,N/A,Rain,Light Rain,180,2014-01-14 18:35:00
1:55 PM,50.0,50.0,100,29.74,4.0,South,17.3,24.2,N/A,Rain,Light Rain,180,2014-01-14 18:55:00
2:15 PM,50.0,50.0,100,29.74,1.8,SSW,10.4,-,N/A,,Overcast,200,2014-01-14 19:15:00
2:35 PM,50.0,50.0,100,29.72,5.0,South,13.8,20.7,N/A,Rain,Light Rain,190,2014-01-14 19:35:00
2:55 PM,50.0,50.0,100,29.71,2.5,SSW,11.5,-,N/A,Rain,Light Rain,200,2014-01-14 19:55:00
3:15 PM,50.0,50.0,100,29.71,1.0,South,10.4,-,N/A,Rain,Rain,190,2014-01-14 20:15:00
3:35 PM,50.0,50.0,100,29.71,1.5,SSW,8.1,-,0.02,Rain,Light Rain,200,2014-01-14 20:35:00
3:55 PM,50.0,50.0,100,29.71,2.5,SW,9.2,-,0.07,Rain,Rain,230,2014-01-14 20:55:00
4:15 PM,50.0,50.0,100,29.69,3.0,SSW,9.2,-,0.02,Rain,Light Rain,200,2014-01-14 21:15:00
4:35 PM,50.0,50.0,100,29.67,5.0,SSW,6.9,-,0.04,Rain,Light Rain,200,2014-01-14 21:35:00
4:55 PM,50.0,50.0,100,29.66,4.0,South,5.8,-,0.07,Rain,Light Rain,180,2014-01-14 21:55:00
5:15 PM,50.0,50.0,100,29.65,2.5,South,6.9,-,0.03,Rain,Rain,180,2014-01-14 22:15:00
5:35 PM,50.0,50.0,100,29.63,3.0,SSE,5.8,-,0.08,Rain,Light Rain,160,2014-01-14 22:35:00
5:55 PM,50.0,50.0,100,29.63,4.0,South,11.5,-,0.12,Rain,Light Rain,180,2014-01-14 22:55:00
6:15 PM,50.0,50.0,100,29.61,3.0,South,11.5,-,N/A,,Overcast,180,2014-01-14 23:15:00
6:35 PM,48.2,48.2,100,29.60,2.5,South,15.0,-,N/A,,Overcast,180,2014-01-14 23:35:00
6:55 PM,48.2,48.2,100,29.59,4.0,South,10.4,-,N/A,,Overcast,190,2014-01-14 23:55:00
7:15 PM,50.0,50.0,100,29.60,5.0,SW,11.5,-,N/A,Rain,Light Rain,220,2014-01-15 00:15:00
7:35 PM,50.0,50.0,100,29.62,1.5,WSW,12.7,19.6,0.02,,Overcast,240,2014-01-15 00:35:00
7:55 PM,48.2,48.2,100,29.61,5.0,West,4.6,-,0.03,Rain,Light Rain,270,2014-01-15 00:55:00
8:15 PM,48.2,48.2,100,29.63,3.0,West,9.2,-,0.02,Rain,Light Rain,260,2014-01-15 01:15:00
8:35 PM,48.2,48.2,100,29.65,3.0,WNW,12.7,18.4,0.05,Rain,Light Rain,300,2014-01-15 01:35:00
8:55 PM,46.4,46.4,100,29.63,5.0,NNW,8.1,17.3,0.06,Rain,Light Rain,330,2014-01-15 01:55:00
9:15 PM,46.4,46.4,100,29.63,7.0,NNW,6.9,-,N/A,,Overcast,330,2014-01-15 02:15:00
9:35 PM,46.4,46.4,100,29.63,10.0,NW,10.4,-,N/A,,Overcast,320,2014-01-15 02:35:00
9:55 PM,46.4,44.6,93,29.62,10.0,North,4.6,-,N/A,,Overcast,360,2014-01-15 02:55:00
10:15 PM,46.4,44.6,93,29.68,10.0,West,10.4,-,N/A,,Overcast,280,2014-01-15 03:15:00
10:35 PM,44.6,44.6,100,29.69,10.0,West,13.8,-,N/A,,Overcast,280,2014-01-15 03:35:00
10:55 PM,44.6,44.6,100,29.71,10.0,West,12.7,20.7,N/A,,Overcast,280,2014-01-15 03:55:00
11:15 PM,44.6,42.8,93,29.74,10.0,West,13.8,-,N/A,,Overcast,280,2014-01-15 04:15:00
11:35 PM,44.6,42.8,93,29.75,10.0,WNW,12.7,-,N/A,,Overcast,290,2014-01-15 04:35:00
11:55 PM,44.6,41.0,87,29.76,10.0,WNW,13.8,19.6,N/A,,Overcast,290,2014-01-15 04:55:00